Location: 22
(39.7117°N, 89.5929°W)
Time: 12:07:08
(UTC-06:00)

Transit 2A - Visible Passes

Search period start: 30 January 2023 00:00
Search period end: 09 February 2023 00:00
Orbit: 594 x 962 km, 66.7° (Epoch: 29 January)

Date Brightness Start Highest point End Pass type
(mag) Time Alt. Az. Time Alt. Az. Time Alt. Az.
30 Jan 5.8 17:38:44 10° SSW 17:43:23 78° ESE 17:48:35 10° NNE visible
30 Jan 8.4 19:24:14 10° W 19:27:19 16° NW 19:30:35 10° N visible
31 Jan 8.0 18:48:42 10° W 18:52:29 22° NW 18:56:36 10° N visible
01 Feb 7.6 18:13:28 10° WSW 18:17:44 31° NW 18:22:25 10° NNE visible
02 Feb 7.0 17:38:30 10° SW 17:43:04 44° NW 17:48:08 10° NNE visible
03 Feb 8.6 18:51:02 10° WNW 18:52:51 12° NW 18:54:45 10° NNW visible
04 Feb 8.4 18:14:52 10° WNW 18:17:56 16° NW 18:21:11 10° N visible
